Hourly Data Report for September 12, 2010

PETERBOROUGH AWOS
ONTARIO

44°14'00.000" N
78°22'00.000" W
191.40 m
6166420

Download Data

Hourly Data (September 2010)
Hourly Data Report for September 12, 2010
TIME
LST
Temp Definition
°C
Dew Point Definition
°C
Rel Hum Definition
%
Precip. Amount Definition
mm

Wind Dir Definition
10's deg

Wind Spd Definition
km/h
Visibility Definition
km
Stn Press Definition
kPa
Hmdx Definition


Wind Chill Definition


Weather Definition


00:00 14.7 10.5 76   LegendMM LegendMM 15.0 98.89      
01:00 14.8 11.7 82   LegendMM LegendMM 15.0 98.90     Rain
02:00 13.1 12.6 97   LegendMM LegendMM 15.0 98.88      
03:00 13.4 13.0 97   LegendMM LegendMM 15.0 98.82      
04:00 13.5 13.2 98   LegendMM LegendMM 15.0 98.80      
05:00 13.9 13.7 99   LegendMM LegendMM 15.0 98.81      
06:00 14.2 14.0 99   LegendMM LegendMM 15.0 98.85      
07:00 14.4 14.4 100   LegendMM LegendMM 4.8 98.88      
08:00 14.8 14.7 99   LegendMM LegendMM 3.9 98.89     Drizzle
09:00 15.1 15.0 99   LegendMM LegendMM 3.2 98.93      
10:00 15.5 15.3 99   LegendMM LegendMM 5.6 98.97     Drizzle
11:00 16.4 14.8 90   LegendMM LegendMM 15.0 99.00      
12:00 17.6 14.6 83   LegendMM LegendMM 15.0 99.01      
13:00 18.4 13.5 73   LegendMM LegendMM 15.0 99.02      
14:00 19.3 13.6 70   LegendMM LegendMM 15.0 99.02      
15:00 17.8 13.6 76   LegendMM LegendMM 15.0 99.05      
16:00 18.4 14.2 77   LegendMM LegendMM 15.0 99.05      
17:00 19.0 13.6 71   LegendMM LegendMM 15.0 99.08      
18:00 18.6 11.6 64   LegendMM LegendMM 15.0 99.11      
19:00 13.4 11.3 87   LegendMM LegendMM 15.0 99.13      
20:00 11.8 11.1 95   LegendMM LegendMM 15.0 99.15      
21:00 10.6 10.3 98   LegendMM LegendMM 15.0 99.16      
22:00 9.6 9.3 98   LegendMM LegendMM 15.0 99.14      
23:00 7.8 7.8 100   LegendMM LegendMM 15.0 99.11      

Notes on Data Quality.

Legend

  • E = Estimated
  • M = Missing
  • NA = Not Available*
  • [empty] = Indicates an unobserved value
Date modified: